This is the latest recevied weather packets stored in our database for station/object SP9TWP-3. If no packets are shown the sender has not sent any weather packets the latest 10 day(s).
| Time | Temp. | Humidity | Pressure | Rain* | Wind** | Luminosity | Snow |
|---|---|---|---|---|---|---|---|
| 1777671963 | 11.67° C | 64% | 1023.8 hPa | - | - | - | - |
| 1777671063 | 12.22° C | 61% | 1023.7 hPa | - | - | - | - |
| 1777670163 | 12.22° C | 57% | 1023.7 hPa | - | - | - | - |
| 1777669263 | 12.78° C | 57% | 1023.6 hPa | - | - | - | - |
| 1777668363 | 13.33° C | 55% | 1023.6 hPa | - | - | - | - |
| 1777667463 | 13.89° C | 50% | 1023.6 hPa | - | - | - | - |
| 1777666563 | 13.89° C | 49% | 1023.6 hPa | - | - | - | - |
| 1777665662 | 14.44° C | 49% | 1023.7 hPa | - | - | - | - |
| 1777664762 | 15° C | 47% | 1023.5 hPa | - | - | - | - |
| 1777663862 | 15.56° C | 44% | 1023.6 hPa | - | - | - | - |
| 1777662962 | 16.11° C | 42% | 1023.5 hPa | - | - | - | - |
| 1777662062 | 16.67° C | 40% | 1023.5 hPa | - | - | - | - |
| 1777661162 | 17.22° C | 39% | 1023.3 hPa | - | - | - | - |
| 1777660261 | 17.22° C | 39% | 1023.4 hPa | - | - | - | - |
| 1777659361 | 17.22° C | 38% | 1023.2 hPa | - | - | - | - |
| 1777658461 | 17.78° C | 37% | 1022.9 hPa | - | - | - | - |
| 1777657561 | 18.33° C | 36% | 1022.9 hPa | - | - | - | - |
| 1777656661 | 18.33° C | 36% | 1022.9 hPa | - | - | - | - |
| 1777655760 | 18.89° C | 36% | 1022.7 hPa | - | - | - | - |
| 1777654860 | 18.89° C | 34% | 1022.7 hPa | - | - | - | - |
| 1777653960 | 18.89° C | 34% | 1022.6 hPa | - | - | - | - |
| 1777653060 | 18.89° C | 35% | 1022.6 hPa | - | - | - | - |
| 1777652160 | 19.44° C | 34% | 1022.6 hPa | - | - | - | - |
| 1777651260 | 19.44° C | 34% | 1022.7 hPa | - | - | - | - |
| 1777650359 | 18.89° C | 35% | 1022.8 hPa | - | - | - | - |
* Rain since midnight (hover to see other rain measurements)
** Current wind speed in m/s (hover to see current wind gust speed)